Time,TemperatureF,DewpointF,PressureIn,WindDirection,WindDirectionDegrees,WindSpeedMPH,WindSpeedGustMPH,Humidity,HourlyPrecipIn,Conditions,Clouds,dailyrainin,SolarRadiationWatts/m^2,SoftwareType,DateUTC
2013-04-09 00:40:00,5.0,1.0,-100.00,East,101,3.0,11.0,84,-99.99,,,0.00,25.000000,,2013-04-09 00:40:00,
2013-04-09 01:02:00,5.0,1.0,-100.00,East,101,3.0,11.0,84,-99.99,,,0.00,25.000000,,2013-04-09 01:02:00,
2013-04-09 01:12:00,5.0,1.0,-100.00,East,101,3.0,11.0,84,-99.99,,,0.00,25.000000,,2013-04-09 01:12:00,
2013-04-09 01:22:00,5.0,1.0,-100.00,East,101,3.0,11.0,84,-99.99,,,0.00,25.000000,,2013-04-09 01:22:00,
2013-04-09 01:32:00,5.0,1.0,-100.00,East,101,3.0,11.0,84,-99.99,,,0.00,25.000000,,2013-04-09 01:32:00,
2013-04-09 01:40:00,3.0,-1.0,-100.00,North,355,4.0,10.0,84,0.00,,,0.00,10.000000,,2013-04-09 01:40:00,
2013-04-09 02:02:00,3.0,-1.0,-100.00,North,355,4.0,10.0,84,0.00,,,0.00,10.000000,,2013-04-09 02:02:00,
2013-04-09 02:12:00,3.0,-1.0,-100.00,North,355,4.0,10.0,84,0.00,,,0.00,10.000000,,2013-04-09 02:12:00,
2013-04-09 02:22:00,3.0,-1.0,-100.00,North,355,4.0,10.0,84,0.00,,,0.00,10.000000,,2013-04-09 02:22:00,
2013-04-09 02:32:00,3.0,-1.0,-100.00,North,355,4.0,10.0,84,0.00,,,0.00,10.000000,,2013-04-09 02:32:00,
2013-04-09 02:40:00,2.0,-1.0,-100.00,North,352,3.0,11.0,85,0.00,,,0.00,0.000000,,2013-04-09 02:40:00,
2013-04-09 03:02:00,2.0,-1.0,-100.00,North,352,3.0,11.0,85,0.00,,,0.00,0.000000,,2013-04-09 03:02:00,
2013-04-09 03:12:00,2.0,-1.0,-100.00,North,352,3.0,11.0,85,0.00,,,0.00,0.000000,,2013-04-09 03:12:00,
2013-04-09 03:21:00,2.0,-1.0,-100.00,North,352,3.0,11.0,85,0.00,,,0.00,0.000000,,2013-04-09 03:21:00,
2013-04-09 03:32:00,2.0,-1.0,-100.00,North,352,3.0,11.0,85,0.00,,,0.00,0.000000,,2013-04-09 03:32:00,
2013-04-09 03:40:00,2.0,-1.0,-100.00,North,359,3.0,9.0,85,0.00,,,0.00,0.000000,,2013-04-09 03:40:00,
2013-04-09 04:02:00,2.0,-1.0,-100.00,North,359,3.0,9.0,85,0.00,,,0.00,0.000000,,2013-04-09 04:02:00,
2013-04-09 04:13:00,2.0,-1.0,-100.00,North,359,3.0,9.0,85,0.00,,,0.00,0.000000,,2013-04-09 04:13:00,
2013-04-09 04:22:00,2.0,-1.0,-100.00,North,359,3.0,9.0,85,0.00,,,0.00,0.000000,,2013-04-09 04:22:00,
2013-04-09 04:32:00,2.0,-1.0,-100.00,North,359,3.0,9.0,85,0.00,,,0.00,0.000000,,2013-04-09 04:32:00,
2013-04-09 04:40:00,2.0,-2.0,-100.00,North,6,3.0,10.0,84,0.00,,,0.00,0.000000,,2013-04-09 04:40:00,
2013-04-09 05:02:00,2.0,-2.0,-100.00,North,6,3.0,10.0,84,0.00,,,0.00,0.000000,,2013-04-09 05:02:00,
2013-04-09 05:12:00,2.0,-2.0,-100.00,North,6,3.0,10.0,84,0.00,,,0.00,0.000000,,2013-04-09 05:12:00,
2013-04-09 05:22:00,2.0,-2.0,-100.00,North,6,3.0,10.0,84,0.00,,,0.00,0.000000,,2013-04-09 05:22:00,
2013-04-09 05:32:00,2.0,-2.0,-100.00,North,6,3.0,10.0,84,0.00,,,0.00,0.000000,,2013-04-09 05:32:00,
2013-04-09 05:40:00,2.0,-1.0,-100.00,North,7,4.0,12.0,85,0.00,,,0.00,0.000000,,2013-04-09 05:40:00,
2013-04-09 06:02:00,2.0,-1.0,-100.00,North,7,4.0,12.0,85,0.00,,,0.00,0.000000,,2013-04-09 06:02:00,
2013-04-09 06:12:00,2.0,-1.0,-100.00,North,7,4.0,12.0,85,0.00,,,0.00,0.000000,,2013-04-09 06:12:00,
2013-04-09 06:22:00,2.0,-1.0,-100.00,North,7,4.0,12.0,85,0.00,,,0.00,0.000000,,2013-04-09 06:22:00,
2013-04-09 06:32:00,2.0,-1.0,-100.00,North,7,4.0,12.0,85,0.00,,,0.00,0.000000,,2013-04-09 06:32:00,
2013-04-09 06:40:00,2.0,-1.0,-100.00,North,11,3.0,8.0,85,0.00,,,0.00,0.000000,,2013-04-09 06:40:00,
2013-04-09 07:02:00,2.0,-1.0,-100.00,North,11,3.0,8.0,85,0.00,,,0.00,0.000000,,2013-04-09 07:02:00,
2013-04-09 07:12:00,2.0,-1.0,-100.00,North,11,3.0,8.0,85,0.00,,,0.00,0.000000,,2013-04-09 07:12:00,
2013-04-09 07:22:00,2.0,-1.0,-100.00,North,11,3.0,8.0,85,0.00,,,0.00,0.000000,,2013-04-09 07:22:00,
2013-04-09 07:32:00,2.0,-1.0,-100.00,North,11,3.0,8.0,85,0.00,,,0.00,0.000000,,2013-04-09 07:32:00,
2013-04-09 07:40:00,2.0,-1.0,-100.00,North,8,2.0,9.0,85,0.00,,,0.00,0.000000,,2013-04-09 07:40:00,
2013-04-09 08:02:00,2.0,-1.0,-100.00,North,8,2.0,9.0,85,0.00,,,0.00,0.000000,,2013-04-09 08:02:00,
2013-04-09 08:12:00,2.0,-1.0,-100.00,North,8,2.0,9.0,85,0.00,,,0.00,0.000000,,2013-04-09 08:12:00,
2013-04-09 08:22:00,2.0,-1.0,-100.00,North,8,2.0,9.0,85,0.00,,,0.00,0.000000,,2013-04-09 08:22:00,
2013-04-09 08:32:00,2.0,-1.0,-100.00,North,8,2.0,9.0,85,0.00,,,0.00,0.000000,,2013-04-09 08:32:00,
2013-04-09 08:40:00,2.0,-2.0,-100.00,NNE,18,3.0,8.0,84,0.00,,,0.00,0.000000,,2013-04-09 08:40:00,
2013-04-09 09:02:00,2.0,-2.0,-100.00,NNE,18,3.0,8.0,84,0.00,,,0.00,0.000000,,2013-04-09 09:02:00,
2013-04-09 09:12:00,2.0,-2.0,-100.00,NNE,18,3.0,8.0,84,0.00,,,0.00,0.000000,,2013-04-09 09:12:00,
2013-04-09 09:22:00,2.0,-2.0,-100.00,NNE,18,3.0,8.0,84,0.00,,,0.00,0.000000,,2013-04-09 09:22:00,
2013-04-09 09:32:00,2.0,-2.0,-100.00,NNE,18,3.0,8.0,84,0.00,,,0.00,0.000000,,2013-04-09 09:32:00,
2013-04-09 09:40:00,1.0,-3.0,-100.00,North,7,3.0,8.0,84,0.00,,,0.00,0.000000,,2013-04-09 09:40:00,
2013-04-09 10:03:00,1.0,-3.0,-100.00,North,7,3.0,8.0,84,0.00,,,0.00,0.000000,,2013-04-09 10:03:00,
2013-04-09 10:12:00,1.0,-3.0,-100.00,North,7,3.0,8.0,84,0.00,,,0.00,0.000000,,2013-04-09 10:12:00,
2013-04-09 10:23:00,1.0,-3.0,-100.00,North,7,3.0,8.0,84,0.00,,,0.00,0.000000,,2013-04-09 10:23:00,
2013-04-09 10:32:00,1.0,-3.0,-100.00,North,7,3.0,8.0,84,0.00,,,0.00,0.000000,,2013-04-09 10:32:00,
2013-04-09 10:40:00,1.0,-3.0,-100.00,ESE,115,2.0,7.0,84,0.00,,,0.00,0.000000,,2013-04-09 10:40:00,
2013-04-09 11:02:00,1.0,-3.0,-100.00,ESE,115,2.0,7.0,84,0.00,,,0.00,0.000000,,2013-04-09 11:02:00,
2013-04-09 11:12:00,1.0,-3.0,-100.00,ESE,115,2.0,7.0,84,0.00,,,0.00,0.000000,,2013-04-09 11:12:00,
2013-04-09 11:22:00,1.0,-3.0,-100.00,ESE,115,2.0,7.0,84,0.00,,,0.00,0.000000,,2013-04-09 11:22:00,
2013-04-09 11:32:00,1.0,-3.0,-100.00,ESE,115,2.0,7.0,84,0.00,,,0.00,0.000000,,2013-04-09 11:32:00,
2013-04-09 11:40:00,0.0,-4.0,-100.00,SE,129,2.0,8.0,84,0.00,,,0.00,0.000000,,2013-04-09 11:40:00,
2013-04-09 12:02:00,0.0,-4.0,-100.00,SE,129,2.0,8.0,84,0.00,,,0.00,0.000000,,2013-04-09 12:02:00,
2013-04-09 12:12:00,0.0,-4.0,-100.00,SE,129,2.0,8.0,84,0.00,,,0.00,0.000000,,2013-04-09 12:12:00,
2013-04-09 12:22:00,0.0,-4.0,-100.00,SE,129,2.0,8.0,84,0.00,,,0.00,0.000000,,2013-04-09 12:22:00,
2013-04-09 12:32:00,0.0,-4.0,-100.00,SE,129,2.0,8.0,84,0.00,,,0.00,0.000000,,2013-04-09 12:32:00,
2013-04-09 12:40:00,0.0,-4.0,-100.00,North,7,3.0,8.0,84,0.00,,,0.00,0.000000,,2013-04-09 12:40:00,
2013-04-09 13:02:00,0.0,-4.0,-100.00,North,7,3.0,8.0,84,0.00,,,0.00,0.000000,,2013-04-09 13:02:00,
2013-04-09 13:12:00,0.0,-4.0,-100.00,North,7,3.0,8.0,84,0.00,,,0.00,0.000000,,2013-04-09 13:12:00,
2013-04-09 13:22:00,0.0,-4.0,-100.00,North,7,3.0,8.0,84,0.00,,,0.00,0.000000,,2013-04-09 13:22:00,
2013-04-09 13:32:00,0.0,-4.0,-100.00,North,7,3.0,8.0,84,0.00,,,0.00,0.000000,,2013-04-09 13:32:00,
2013-04-09 13:40:00,1.0,-3.0,-100.00,North,8,2.0,9.0,84,0.00,,,0.00,6.000000,,2013-04-09 13:40:00,
2013-04-09 14:03:00,1.0,-3.0,-100.00,North,8,2.0,9.0,84,0.00,,,0.00,6.000000,,2013-04-09 14:03:00,
2013-04-09 14:12:00,1.0,-3.0,-100.00,North,8,2.0,9.0,84,0.00,,,0.00,6.000000,,2013-04-09 14:12:00,
2013-04-09 14:22:00,1.0,-3.0,-100.00,North,8,2.0,9.0,84,0.00,,,0.00,6.000000,,2013-04-09 14:22:00,
2013-04-09 14:32:00,1.0,-3.0,-100.00,North,8,2.0,9.0,84,0.00,,,0.00,6.000000,,2013-04-09 14:32:00,
2013-04-09 14:40:00,3.0,-1.0,-100.00,North,0,2.0,6.0,84,0.00,,,0.00,27.000000,,2013-04-09 14:40:00,
2013-04-09 15:02:00,3.0,-1.0,-100.00,North,0,2.0,6.0,84,0.00,,,0.00,27.000000,,2013-04-09 15:02:00,
2013-04-09 15:12:00,3.0,-1.0,-100.00,North,0,2.0,6.0,84,0.00,,,0.00,27.000000,,2013-04-09 15:12:00,
2013-04-09 15:22:00,3.0,-1.0,-100.00,North,0,2.0,6.0,84,0.00,,,0.00,27.000000,,2013-04-09 15:22:00,
2013-04-09 15:33:00,3.0,-1.0,-100.00,North,0,2.0,6.0,84,0.00,,,0.00,27.000000,,2013-04-09 15:33:00,
2013-04-09 15:40:00,5.0,1.0,-100.00,North,3,3.0,8.0,83,0.00,,,0.00,57.000000,,2013-04-09 15:40:00,
2013-04-09 16:03:00,5.0,1.0,-100.00,North,3,3.0,8.0,83,0.00,,,0.00,57.000000,,2013-04-09 16:03:00,
2013-04-09 16:13:00,5.0,1.0,-100.00,North,3,3.0,8.0,83,0.00,,,0.00,57.000000,,2013-04-09 16:13:00,
2013-04-09 16:23:00,5.0,1.0,-100.00,North,3,3.0,8.0,83,0.00,,,0.00,57.000000,,2013-04-09 16:23:00,
2013-04-09 16:33:00,5.0,1.0,-100.00,North,3,3.0,8.0,83,0.00,,,0.00,57.000000,,2013-04-09 16:33:00,
2013-04-09 16:40:00,15.0,12.0,-100.00,North,355,2.0,6.0,87,0.00,,,0.00,118.000000,,2013-04-09 16:40:00,
2013-04-09 17:02:00,15.0,12.0,-100.00,North,355,2.0,6.0,87,0.00,,,0.00,118.000000,,2013-04-09 17:02:00,
2013-04-09 17:12:00,15.0,12.0,-100.00,North,355,2.0,6.0,87,0.00,,,0.00,118.000000,,2013-04-09 17:12:00,
2013-04-09 17:22:00,15.0,12.0,-100.00,North,355,2.0,6.0,87,0.00,,,0.00,118.000000,,2013-04-09 17:22:00,
2013-04-09 17:32:00,15.0,12.0,-100.00,North,355,2.0,6.0,87,0.00,,,0.00,118.000000,,2013-04-09 17:32:00,
2013-04-09 18:02:00,27.0,21.0,-100.00,North,6,2.0,5.0,79,0.00,,,0.00,175.000000,,2013-04-09 18:02:00,
2013-04-09 19:32:00,28.0,15.0,-100.00,NNW,343,1.0,4.0,57,-99.99,,,0.05,159.000000,,2013-04-09 19:32:00,
2013-04-09 20:02:00,29.0,14.0,-100.00,NNW,344,1.0,5.0,53,-99.99,,,0.12,162.000000,,2013-04-09 20:02:00,
2013-04-09 21:02:00,32.0,14.0,-100.00,NNW,348,3.0,9.0,46,-99.99,,,0.13,415.000000,,2013-04-09 21:02:00,
2013-04-09 21:13:00,32.0,14.0,-100.00,NNW,348,3.0,9.0,46,-99.99,,,0.13,415.000000,,2013-04-09 21:13:00,
2013-04-09 21:22:00,32.0,14.0,-100.00,NNW,348,3.0,9.0,46,-99.99,,,0.13,415.000000,,2013-04-09 21:22:00,
2013-04-09 22:03:00,32.0,15.0,-100.00,NNW,340,5.0,12.0,50,-99.99,,,0.13,938.000000,,2013-04-09 22:03:00,
2013-04-09 23:02:00,29.0,14.0,-100.00,North,349,3.0,11.0,53,-99.99,,,0.13,717.000000,,2013-04-09 23:02:00,
2013-04-09 23:40:00,26.0,11.0,-100.00,NW,324,3.0,8.0,52,-99.99,,,-99.99,515.000000,,2013-04-09 23:40:00,